Home   Weather   Kaunas   Past weeks

Flag for Lithuania Past Weather in Kaunas, Lithuania — Yesterday and Last 2 Weeks

Now
61 °F

Sprinkles. Cloudy.


Feels Like: 61 °F
Forecast: 51 / 68 °F
Wind: 13 mph from West

Location: Kaunas

Current Time: Aug 30, 2016 at 12:31:30 PM

Latest Report: Aug 30, 2016 at 11:50 AM


Visibility: 6 mi

Pressure: 29.98 "Hg

Humidity: 72%

Dew Point: 52 °F

Location of KaunasLocation

Past Weather in Kaunas — Graph

°F

Kaunas Temperature Yesterday

Maximum temperature yesterday: 82 °F (at 1:50 PM)
Minimum temperature yesterday: 59 °F (at 3:50 AM)
Average temperature yesterday: 69 °F

High & Low Weather Summary for the Past Weeks

 TemperatureHumidityPressure
High82 °F (Aug 27, 2:20 PM)100% (Aug 16, 4:50 AM)30.33 "Hg (Aug 16, 4:50 AM)
Low50 °F (Aug 20, 6:20 AM)37% (Aug 20, 4:20 PM)29.74 "Hg (Aug 17, 7:50 AM)
Average64 °F77%30.04 "Hg
* Reported Aug 15 11:20 AM — Aug 30 11:20 AM, Kaunas, Weather by CustomWeather, © 2016

Note: Actual official high and low records may vary slightly from our data, if they occured in-between our weather recording intervals... More about our weather records

Advertising

Kaunas Weather History for the Previous 24 Hours

Scroll right to see more
 ConditionsComfort  
Time TempWeatherWind HumidityBarometerVisibility
11:20 AM
Tue, Aug 30
61 °FScattered showers. Broken clouds.10 mph72%29.98 "HgN/A
10:50 AM61 °FCloudy.14 mph72%29.95 "HgN/A
10:20 AM61 °FCloudy.16 mph72%29.95 "HgN/A
9:50 AM61 °FBroken clouds.15 mph72%29.95 "HgN/A
9:20 AM59 °FBroken clouds.15 mph77%29.92 "HgN/A
8:50 AM59 °FBroken clouds.15 mph77%29.92 "HgN/A
8:20 AM59 °FScattered clouds.14 mph77%29.92 "HgN/A
7:50 AM59 °FPassing clouds.13 mph82%29.89 "HgN/A
7:20 AM59 °FPassing clouds.13 mph82%29.89 "HgN/A
6:50 AM57 °FPartly cloudy.9 mph88%29.89 "HgN/A
6:20 AM57 °FPassing clouds.9 mph88%29.89 "HgN/A
5:50 AM59 °FPassing clouds.10 mph82%29.89 "HgN/A
5:20 AM59 °FPartly cloudy.12 mph82%29.89 "HgN/A
4:50 AM59 °FClear.12 mph82%29.89 "Hg10 mi
4:20 AM59 °FPassing clouds.13 mph82%29.89 "HgN/A
3:50 AM61 °FClear.12 mph83%29.89 "Hg10 mi
3:20 AM61 °FCool.12 mph83%29.89 "Hg1 mi
2:50 AM61 °FPassing clouds.13 mph83%29.89 "Hg1 mi
2:20 AM61 °FPassing clouds.10 mph83%29.89 "Hg1 mi
1:50 AM61 °FCool.9 mph88%29.89 "Hg1 mi
1:20 AM61 °FPassing clouds.7 mph88%29.89 "Hg1 mi
12:50 AM63 °FOvercast.8 mph83%29.89 "Hg1 mi
12:20 AM63 °FPassing clouds.8 mph83%29.89 "Hg1 mi
11:50 PM
Mon, Aug 29
63 °FFog.8 mph83%29.89 "HgN/A
11:20 PM64 °FClear.9 mph78%29.86 "Hg10 mi
10:50 PM63 °FPartly cloudy.5 mph83%29.86 "HgN/A
10:20 PM61 °FPartly cloudy.No wind83%29.86 "HgN/A
9:50 PM63 °FClear.No wind83%29.83 "Hg10 mi
9:20 PM63 °FSunny.No wind83%29.83 "Hg10 mi
8:50 PM66 °FSunny.1 mph73%29.83 "Hg10 mi
8:20 PM66 °FPassing clouds.5 mph73%29.83 "HgN/A
7:50 PM70 °FPartly sunny.9 mph64%29.83 "HgN/A
7:20 PM70 °FPartly sunny.9 mph69%29.83 "HgN/A
6:50 PM70 °FBroken clouds.10 mph73%29.83 "HgN/A
6:20 PM73 °FSprinkles. Broken clouds.13 mph69%29.80 "HgN/A
5:50 PM75 °FBroken clouds.10 mph61%29.80 "HgN/A
5:20 PM77 °FSunny.14 mph57%29.80 "Hg10 mi
4:50 PM75 °FSunny.17 mph61%29.80 "Hg10 mi
4:20 PM77 °FPartly sunny.15 mph57%29.80 "HgN/A
3:50 PM79 °FPassing clouds.14 mph54%29.80 "HgN/A
3:20 PM77 °FPassing clouds.16 mph57%29.80 "HgN/A
2:50 PM77 °FBroken clouds.18 mph57%29.80 "HgN/A
2:20 PM81 °FBroken clouds.15 mph54%29.77 "HgN/A
1:50 PM82 °FPassing clouds.13 mph51%29.77 "HgN/A
1:20 PM79 °FPassing clouds.8 mph58%29.77 "HgN/A
12:50 PM81 °FPassing clouds.9 mph54%29.77 "HgN/A
12:20 PM77 °FPassing clouds.9 mph61%29.77 "HgN/A
Weather by CustomWeather, © 2016

See weather overviewHow to use our weather pages